Location: Hoyos del Collado
(40.3594°N, 5.2003°W)
Time: 13:37:11
(UTC+00:00)

Cosmos 371 Rocket - Pass Details

Date: 18 April 2024
Orbit: 680 x 694 km, 74.0° (Epoch: 26 May)

Event Time Altitude Azimuth Distance (km) Brightness Sun altitude
Rises 20:12:42 0° 348° (NNW) 3,047 7.2 -13.1°
Reaches altitude 10° 20:15:10 10° 357° (N) 2,128 6.2 -13.5°
Maximum altitude 20:19:36 37° 65° (ENE) 1,063 4.0 -14.3°
Enters shadow 20:21:51 23° 115° (ESE) 1,419 4.3 -14.7°
